When you browse on this site, cookies collect data to enhance your experience and personalize the content and advertising you see.
Visit our Privacy Policy to learn more. By continuing to use the site, you agree to this use of cookies and data.
  • In Portugal
  • List of Countries
  • For 7 days
  • Water Temperature
  • Weather Map
  • Weather Widgets
  • user-avatar
    Login

    Hourly Weather Monzino

    Today, 5 June, Friday

    Time Temperature Precipitation Wind Pressure Humidity
    00:00 +8°C° 0 mm 1 mps 750 mmHg 81%
    01:00 +8°C° 0 mm 1 mps 750 mmHg 84%
    02:00 +7°C° 0 mm 1 mps 750 mmHg 85%
    03:00 +7°C° 0 mm 1 mps 751 mmHg 86%
    04:00 +7°C° 0 mm 1 mps 751 mmHg 88%
    05:00 +10°C° 0 mm 1 mps 751 mmHg 78%
    06:00 +12°C° 0 mm 1 mps 751 mmHg 67%
    07:00 +15°C° 0 mm 1 mps 751 mmHg 57%
    08:00 +16°C° 0 mm 2 mps 750 mmHg 51%
    09:00 +18°C° 0 mm 2 mps 750 mmHg 44%
    10:00 +19°C° 0 mm 2 mps 751 mmHg 37%
    11:00 +20°C° 0 mm 2 mps 750 mmHg 35%
    12:00 +21°C° 0 mm 2 mps 750 mmHg 33%
    13:00 +23°C° 0 mm 1 mps 750 mmHg 31%
    14:00 +24°C° 0 mm 1 mps 750 mmHg 31%
    15:00 +24°C° 0 mm 1 mps 750 mmHg 32%
    16:00 +24°C° 0 mm 1 mps 750 mmHg 32%
    17:00 +23°C° 0 mm 1 mps 750 mmHg 39%
    18:00 +21°C° 0 mm 1 mps 750 mmHg 47%
    19:00 +20°C° 0 mm 1 mps 750 mmHg 54%
    20:00 +18°C° 0 mm 1 mps 750 mmHg 58%
    21:00 +15°C° 0 mm 1 mps 750 mmHg 61%
    22:00 +13°C° 0 mm 1 mps 750 mmHg 65%
    23:00 +12°C° 0 mm 1 mps 750 mmHg 69%

    Tomorrow, 6 June, Saturday

    Time Temperature Precipitation Wind Pressure Humidity
    00:00 +11°C° 0 mm 1 mps 750 mmHg 74%
    01:00 +11°C° 0 mm 1 mps 750 mmHg 79%
    02:00 +11°C° 0 mm 1 mps 751 mmHg 80%
    03:00 +10°C° 0 mm 0 mps 751 mmHg 82%
    04:00 +10°C° 0 mm 0 mps 751 mmHg 84%
    05:00 +12°C° 0 mm 0 mps 751 mmHg 77%
    06:00 +15°C° 0 mm 1 mps 751 mmHg 69%
    07:00 +19°C° 0 mm 1 mps 751 mmHg 62%
    08:00 +21°C° 0 mm 1 mps 751 mmHg 54%
    09:00 +22°C° 0 mm 1 mps 751 mmHg 47%
    10:00 +24°C° 0 mm 2 mps 751 mmHg 40%
    11:00 +25°C° 0 mm 2 mps 750 mmHg 38%
    12:00 +26°C° 0 mm 2 mps 750 mmHg 36%
    13:00 +26°C° 0 mm 1 mps 750 mmHg 34%
    14:00 +26°C° 0 mm 2 mps 750 mmHg 35%
    15:00 +26°C° 0 mm 2 mps 749 mmHg 36%
    16:00 +26°C° 0 mm 2 mps 749 mmHg 37%
    17:00 +25°C° 0 mm 2 mps 749 mmHg 45%
    18:00 +24°C° 0 mm 1 mps 749 mmHg 53%
    19:00 +22°C° 0 mm 1 mps 748 mmHg 61%
    20:00 +20°C° 0 mm 1 mps 749 mmHg 65%
    21:00 +19°C° 0 mm 1 mps 749 mmHg 70%
    22:00 +16°C° 0 mm 1 mps 749 mmHg 75%
    23:00 +15°C° 0 mm 1 mps 749 mmHg 75%

    Day after tomorrow, 7 June, Sunday

    Time Temperature Precipitation Wind Pressure Humidity
    00:00 +14°C° 0 mm 1 mps 749 mmHg 74%
    01:00 +13°C° 0 mm 1 mps 749 mmHg 74%
    02:00 +13°C° 0 mm 1 mps 750 mmHg 73%
    03:00 +13°C° 0 mm 1 mps 750 mmHg 73%
    04:00 +12°C° 0 mm 1 mps 750 mmHg 73%
    05:00 +15°C° 0 mm 1 mps 750 mmHg 67%
    06:00 +18°C° 0 mm 1 mps 751 mmHg 61%
    07:00 +21°C° 0 mm 1 mps 751 mmHg 55%
    08:00 +22°C° 0 mm 1 mps 751 mmHg 50%
    09:00 +24°C° 0 mm 1 mps 751 mmHg 45%
    10:00 +25°C° 0 mm 2 mps 751 mmHg 39%
    11:00 +26°C° 0 mm 2 mps 751 mmHg 37%
    12:00 +27°C° 0 mm 2 mps 751 mmHg 34%
    13:00 +27°C° 0 mm 2 mps 750 mmHg 31%
    14:00 +27°C° 0 mm 2 mps 750 mmHg 31%
    15:00 +27°C° 0 mm 2 mps 750 mmHg 32%
    16:00 +27°C° 0 mm 2 mps 750 mmHg 32%
    17:00 +26°C° 0 mm 1 mps 750 mmHg 39%
    18:00 +25°C° 0 mm 1 mps 750 mmHg 47%
    19:00 +24°C° 0 mm 1 mps 750 mmHg 54%
    20:00 +22°C° 0 mm 1 mps 750 mmHg 58%
    21:00 +20°C° 0 mm 1 mps 750 mmHg 62%
    22:00 +16°C° 0 mm 2 mps 751 mmHg 67%
    23:00 +16°C° 0 mm 1 mps 751 mmHg 69%

    8 June, Monday

    Time Temperature Precipitation Wind Pressure Humidity
    00:00 +15°C° 0 mm 1 mps 751 mmHg 72%
    01:00 +14°C° 0 mm 1 mps 751 mmHg 74%
    02:00 +14°C° 0 mm 1 mps 751 mmHg 76%
    03:00 +14°C° 0 mm 1 mps 751 mmHg 78%
    04:00 +14°C° 0 mm 1 mps 752 mmHg 79%
    05:00 +16°C° 0 mm 1 mps 752 mmHg 72%
    06:00 +19°C° 0 mm 1 mps 752 mmHg 65%
    07:00 +22°C° 0 mm 1 mps 752 mmHg 59%
    08:00 +23°C° 0 mm 2 mps 752 mmHg 53%
    09:00 +25°C° 0 mm 3 mps 752 mmHg 48%
    10:00 +26°C° 0 mm 3 mps 752 mmHg 42%
    11:00 +27°C° 0 mm 4 mps 752 mmHg 40%
    12:00 +27°C° 0 mm 4 mps 752 mmHg 39%
    13:00 +28°C° 0 mm 4 mps 752 mmHg 37%
    14:00 +28°C° 0 mm 4 mps 751 mmHg 39%
    15:00 +28°C° 0 mm 4 mps 751 mmHg 40%
    16:00 +28°C° 0 mm 4 mps 751 mmHg 41%
    17:00 +27°C° 0 mm 3 mps 751 mmHg 48%
    18:00 +26°C° 0 mm 3 mps 751 mmHg 56%
    19:00 +25°C° 0 mm 2 mps 751 mmHg 63%
    20:00 +23°C° 0 mm 2 mps 751 mmHg 68%
    21:00 +20°C° 0 mm 2 mps 751 mmHg 73%
    22:00 +18°C° 0 mm 2 mps 751 mmHg 77%
    23:00 +17°C° 0 mm 2 mps 751 mmHg 77%

    9 June, Tuesday

    Time Temperature Precipitation Wind Pressure Humidity
    00:00 +17°C° 0 mm 2 mps 752 mmHg 77%
    01:00 +17°C° 0 mm 2 mps 752 mmHg 77%
    02:00 +17°C° 0 mm 2 mps 752 mmHg 78%
    03:00 +16°C° 0 mm 2 mps 752 mmHg 79%
    04:00 +16°C° 0 mm 2 mps 752 mmHg 81%
    05:00 +18°C° 0 mm 2 mps 752 mmHg 75%
    06:00 +20°C° 0 mm 2 mps 752 mmHg 69%
    07:00 +23°C° 0 mm 2 mps 752 mmHg 63%
    08:00 +25°C° 0 mm 2 mps 752 mmHg 57%
    09:00 +27°C° 0 mm 2 mps 752 mmHg 51%
    10:00 +28°C° 0 mm 3 mps 752 mmHg 45%
    11:00 +29°C° 0 mm 3 mps 752 mmHg 44%
    12:00 +29°C° 0 mm 3 mps 752 mmHg 43%
    13:00 +29°C° 0 mm 3 mps 752 mmHg 42%
    14:00 +30°C° 0 mm 3 mps 752 mmHg 42%
    15:00 +30°C° 0 mm 3 mps 751 mmHg 42%
    16:00 +30°C° 0 mm 3 mps 751 mmHg 42%
    17:00 +29°C° 0 mm 3 mps 751 mmHg 49%
    18:00 +28°C° 0 mm 2 mps 751 mmHg 56%
    19:00 +27°C° 0 mm 2 mps 751 mmHg 62%
    20:00 +25°C° 0 mm 2 mps 751 mmHg 66%
    21:00 +23°C° 0 mm 2 mps 751 mmHg 70%
    22:00 +21°C° 0 mm 2 mps 751 mmHg 74%
    23:00 +20°C° 0 mm 2 mps 751 mmHg 75%

    10 June, Wednesday

    Time Temperature Precipitation Wind Pressure Humidity
    00:00 +19°C° 0 mm 2 mps 751 mmHg 76%
    01:00 +19°C° 0 mm 2 mps 751 mmHg 76%
    02:00 +18°C° 0 mm 2 mps 752 mmHg 78%
    03:00 +18°C° 0 mm 2 mps 752 mmHg 80%
    04:00 +18°C° 0 mm 2 mps 752 mmHg 82%
    05:00 +19°C° 0 mm 2 mps 752 mmHg 76%
    06:00 +21°C° 0 mm 2 mps 752 mmHg 69%
    07:00 +24°C° 0 mm 2 mps 752 mmHg 63%
    08:00 +25°C° 0 mm 3 mps 752 mmHg 56%
    09:00 +27°C° 0 mm 3 mps 752 mmHg 49%
    10:00 +28°C° 0 mm 4 mps 752 mmHg 43%
    11:00 +29°C° 0 mm 4 mps 752 mmHg 42%
    12:00 +29°C° 0 mm 4 mps 751 mmHg 40%
    13:00 +29°C° 0 mm 4 mps 751 mmHg 39%
    14:00 +29°C° 0 mm 4 mps 751 mmHg 39%
    15:00 +29°C° 0 mm 4 mps 751 mmHg 40%
    16:00 +29°C° 0 mm 4 mps 751 mmHg 40%
    17:00 +28°C° 0 mm 4 mps 751 mmHg 46%
    18:00 +27°C° 0 mm 3 mps 750 mmHg 52%
    19:00 +26°C° 0 mm 2 mps 750 mmHg 59%
    20:00 +24°C° 0 mm 2 mps 751 mmHg 64%
    21:00 +21°C° 0 mm 2 mps 751 mmHg 69%
    22:00 +20°C° 0 mm 2 mps 751 mmHg 74%
    23:00 +19°C° 0 mm 2 mps 751 mmHg 75%
    Show more